This demonstration page uses our WeatherBlox Daily Observations layout. Learn more.

Left ArrowRight Arrow

38.80484, -77.04692

Hourly Observations for November 14, 2021

Temp ( °F °C ) Dew Point ( °F °C ) Humidity (%) Winds ( mph kmh ) Pressure ( in mb ) Visibility ( mi km ) Precip ( " mm )
12:52 am 00:52 Clear 37 2.8 27 -2.8 67 67 SW 3 6 30.01 1016 10 16 N/A
1:52 am 01:52 Clear 36 2.2 27 -2.8 70 70 SSW 8 13 30.01 1016 10 16 N/A
2:52 am 02:52 Clear 35 1.7 27 -2.8 72 72 SSW 7 11 30.02 1017 10 16 N/A
3:52 am 03:52 Clear 35 1.7 27 -2.8 72 72 SSW 5 7 30.01 1016 10 16 N/A
4:52 am 04:52 Clear 34 1.1 27 -2.8 76 76 S 7 11 30.04 1017 10 16 N/A
5:52 am 05:52 Mostly Cloudy 34 1.1 27 -2.8 76 76 SSW 6 9 30.03 1017 10 16 N/A
6:52 am 06:52 Mostly Cloudy 34 1.1 27 -2.8 76 76 SW 7 11 30.04 1017 10 16 N/A
7:52 am 07:52 Mostly Cloudy 36 2.2 27 -2.8 70 70 SW 6 9 30.05 1018 10 16 N/A
8:52 am 08:52 Mostly Cloudy 41 5 28 -2.2 60 60 SSW 3 6 30.06 1018 10 16 N/A
9:52 am 09:52 Mostly Cloudy 45 7.2 32 undefined 61 61 S 6 9 30.05 1018 10 16 N/A
10:52 am 10:52 Cloudy 46 7.8 30 -1.1 54 54 SSW 8 13 30.03 1017 10 16 N/A
11:52 am 11:52 Mostly Cloudy 46 7.8 28 -2.2 50 50 S 10 17 29.97 1015 10 16 N/A
12:52 pm 12:52 Mostly Cloudy 47 8.3 26 -3.3 44 44 SSW 13 20 29.94 1014 10 16 N/A
1:52 pm 13:52 Mostly Cloudy 48 8.9 27 -2.8 44 44 S 14 22 29.91 1013 10 16 N/A
2:52 pm 14:52 Mostly Cloudy 48 8.9 29 -1.7 48 48 SSW 12 19 29.88 1012 10 16 N/A
3:52 pm 15:52 Mostly Cloudy 48 8.9 28 -2.2 46 46 S 12 19 29.84 1011 10 16 N/A
4:52 pm 16:52 Cloudy 48 8.9 28 -2.2 46 46 SSW 12 19 29.85 1011 10 16 N/A
5:52 pm 17:52 Cloudy 48 8.9 28 -2.2 46 46 SW 10 17 29.85 1011 10 16 N/A
6:52 pm 18:52 Cloudy 48 8.9 28 -2.2 46 46 SSW 10 17 29.85 1011 10 16 0.00 0.00
7:52 pm 19:52 Cloudy 48 8.9 28 -2.2 46 46 SSW 9 15 29.85 1011 10 16 N/A
8:52 pm 20:52 Cloudy 47 8.3 31 -0.6 54 54 SSW 7 11 29.84 1011 10 16 N/A
9:52 pm 21:52 Mostly Cloudy 47 8.3 32 undefined 56 56 S 9 15 29.84 1011 10 16 N/A
10:52 pm 22:52 Cloudy 47 8.3 33 0.6 59 59 SSW 8 13 29.82 1010 10 16 N/A
11:52 pm 23:52 Cloudy 45 7.2 33 0.6 63 63 S 5 7 29.80 1009 10 16 N/A

Powered by AerisWeather